[[{"header":{"parameterUnit":"m.s-1","parameterCategory":1,"la1":30.2991,"la2":30.254,"lo1":-89.0895,"lo2":-89.0444,"dy":0.0017,"dx":0.0017,"nx":28,"ny":28,"refTime":"2025-07-12T09:00:00:Z","depth":0,"parameterNumber":2,"parameterNumberName":"U-component_of_WINDS"},"data":[0,0,0,0,0,0,0,0,0,0,0,0,0,0,0,0,0,0,0,0,0,0,0,0,0,0,0,0,0,0,0,0,0,0,0,0,0,0,0,0,0,0,0,0,0,0,0,0,0,0,0,0,0,0,0,0,0,0,2.934,2.9341,0,2.9431,2.9432,2.9433,2.938,2.9377,2.9374,2.9372,2.9465,2.947,2.9475,0,0,0,0,0,0,0,0,0,0,0,0,0,2.9119,2.9124,2.934,2.9341,2.9343,2.9431,2.9432,2.9433,2.938,2.9377,2.9374,2.9371,2.9464,2.9469,2.9475,0,0,0,0,0,0,0,0,0,0,0,0,0,2.9213,2.9125,2.934,2.9327,2.9326,2.9431,2.9432,2.9434,2.9381,2.9377,2.9373,2.9369,2.9462,2.9469,2.9476,2.9599,0,0,2.9498,2.9502,0,0,0,0,0,0,0,0,2.9208,2.9221,2.9327,2.9328,2.9328,2.939,2.9388,2.9489,2.9382,2.936,2.9372,2.9367,2.9443,2.9452,2.9477,2.9603,2.9607,2.9499,2.9504,2.9507,2.9509,0,0,0,0,0,0,0,2.9202,2.9217,2.9376,2.9329,2.9329,2.9315,2.9324,2.9407,2.9422,2.9362,2.9358,2.9369,2.9443,2.9471,2.9479,2.9609,2.9499,2.9505,2.951,2.9513,2.9837,2.984,0,0,0,0,0,0,2.9196,2.9212,2.9373,2.9379,2.9257,2.9323,2.9333,2.9374,2.9421,2.9425,2.9373,2.9367,2.946,2.9471,2.9482,2.9627,2.9507,2.9514,2.9518,2.9832,2.9837,2.9842,0,0,0,0,0,0,2.9192,2.9211,2.937,2.9295,2.9314,2.933,2.9377,2.9378,2.9405,2.943,2.9432,2.9398,2.9457,2.9472,2.957,2.963,2.9517,2.9523,2.9827,2.9834,2.984,2.9919,0,0,0,0,0,0,2.9185,2.921,2.9257,2.9296,2.9318,2.9456,2.9381,2.9382,2.9418,2.9411,2.9454,2.9458,2.9455,2.9559,2.9577,2.9638,2.9529,2.9822,2.983,2.9838,2.9911,2.9928,2.9941,0,0,0,0,0,2.9178,2.9277,2.926,2.928,2.9378,2.946,2.9472,2.9467,2.9423,2.9471,2.9486,2.9457,2.962,2.9569,2.9589,2.9653,2.9818,2.9828,2.9837,2.9905,2.9924,2.9941,0,0,0,0,0,0,2.9245,2.9282,2.9263,2.9378,2.9416,2.9451,2.951,2.9489,2.954,2.9532,2.9523,2.9533,2.9635,2.9654,2.9596,2.9773,2.9712,2.9726,2.9757,2.9776,2.9791,2.9784,2.9535,0,0,0,0,0,2.9273,2.9337,2.9366,2.9464,2.9484,2.9494,2.953,2.9522,2.9561,2.9577,2.96,2.9639,2.9698,2.9738,2.9795,2.9914,2.9921,2.9967,2.9982,2.9995,3.0007,3.0068,3.0088,2.9873,2.9873,2.9873,0,0,2.9333,2.936,2.9401,2.9478,2.9507,2.9572,2.9508,2.9581,2.9629,2.9588,2.9681,2.9699,2.9742,2.985,2.9899,2.9869,3.0067,3.0007,3.0016,3.0022,3.008,3.01,3.0118,2.9879,2.9878,2.9877,0,0,2.9473,2.9501,2.9585,2.9615,2.9658,2.9664,2.9684,2.9721,2.9731,2.9824,2.9794,2.9851,2.9956,2.9986,3.0016,3.0165,3.014,3.0184,3.0262,3.0323,3.034,3.0354,3.0406,3.0425,3.0196,3.0196,3.0196,0,2.9541,2.9639,2.9631,2.9705,2.9739,2.9704,2.9788,2.9817,2.9878,2.9901,2.9867,2.9995,3.0022,3.0135,3.0171,3.0197,3.0219,3.0179,3.0338,3.0353,3.0367,3.0415,3.0435,3.0201,3.0201,3.02,3.02,0,2.9719,2.9787,2.9849,2.9907,2.9948,3.0027,3.003,3.0072,3.0061,3.0069,3.0163,3.0194,3.0255,3.0281,3.0271,3.0393,3.0373,3.0339,3.0277,3.0392,3.0438,3.0457,3.0208,3.0207,3.0205,3.0204,0,0,2.9906,2.9957,2.998,3.0004,3.0049,3.0101,3.0177,3.0236,3.0272,3.0314,3.0377,3.0464,3.0432,3.0466,3.0459,3.0512,3.0625,3.047,3.0471,3.0497,3.0758,3.0783,3.0805,3.0609,3.0612,3.0615,3.0754,0,3.0048,3.0182,3.0175,3.03,3.0361,3.0328,3.0394,3.0428,3.0438,3.0491,3.0502,3.0563,3.0517,3.0536,3.0587,3.0601,3.0677,3.0591,3.0666,3.0668,3.0655,3.0829,3.0856,3.0986,3.0772,3.0775,3.0777,0,3.0233,3.0279,3.041,3.0442,3.0468,3.0528,3.058,3.0631,3.0668,3.0671,3.0708,3.0691,3.0767,3.0704,3.0807,3.0748,3.0778,3.0789,3.0794,3.08,3.0729,3.0839,3.1028,3.1047,3.0806,3.0804,3.0802,0,3.0354,3.045,3.0539,3.0562,3.0603,3.0645,3.0664,3.0697,3.0732,3.0777,3.08,3.0854,3.0883,3.0925,3.0923,3.0877,3.1027,3.0964,3.103,3.103,3.1063,3.1061,3.1258,3.1085,3.1084,3.1084,3.1084,0,3.0513,3.0593,3.0594,3.0649,3.0737,3.0729,3.0816,3.0831,3.086,3.0916,3.0891,3.0945,3.0939,3.0993,3.0992,3.1076,3.109,3.1094,3.1092,3.1096,3.1095,3.1115,3.1105,3.1089,3.1088,3.1087,3.1086,0,3.0664,3.0667,3.0762,3.0792,3.0802,3.0866,3.0891,3.0942,3.0949,3.102,3.1037,3.1047,3.1109,3.1111,3.1182,3.1181,3.1283,3.1272,3.127,3.1268,3.1333,3.1326,3.1549,3.1577,3.1387,3.1389,3.139,0,3.0765,3.0825,3.0861,3.0897,3.0918,3.0976,3.1011,3.1004,3.1041,3.1086,3.1132,3.1191,3.1237,3.1336,3.135,3.1403,3.1393,3.1467,3.1401,3.1401,3.1392,3.1388,3.1393,3.148,3.1482,3.1484,3.1485,0,3.0942,3.094,3.0992,3.1043,3.1085,3.1125,3.1163,3.1193,3.119,3.1233,3.1295,3.1331,3.1402,3.146,3.1511,3.153,3.1507,3.1506,3.1524,3.1527,3.1523,3.1524,3.1304,3.1501,3.1499,3.1498,3.1497,3.1497,3.107,3.1122,3.1154,3.1211,3.1238,3.1273,3.1322,3.1334,3.1385,3.1442,3.1434,3.1503,3.1535,3.1602,3.1624,3.1677,3.1651,3.1678,3.1684,3.169,3.1696,3.1515,3.1687,3.1686,3.1686,3.1685,3.1685,0,3.1245,3.1264,3.1316,3.1368,3.1413,3.1386,3.1425,3.1464,3.1524,3.1557,3.1602,3.1672,3.1727,3.1744,3.1798,3.1836,3.1827,3.185,3.1847,3.1851,3.1717,3.1696,3.1857,3.1857,3.1857,3.1857,3.1857,3.1857,3.1341,3.1426,3.1428,3.1525,3.1543,3.1609,3.1633,3.1664,3.1689,3.1768,3.1814,3.1824,3.185,3.1904,3.1953,3.1956,3.1976,3.2004,3.2003,3.1878,3.1861,3.1844,3.1824,3.2009,3.2009,3.2132,3.2133,3.2134]},{"header":{"parameterUnit":"m.s-1","parameterCategory":1,"la1":30.2991,"la2":30.254,"lo1":-89.0895,"lo2":-89.0444,"dy":0.0017,"dx":0.0017,"nx":28,"ny":28,"refTime":"2025-07-12T09:00:00:Z","depth":0,"parameterNumber":3,"parameterNumberName":"V-component_of_WINDS"},"data":[0,0,0,0,0,0,0,0,0,0,0,0,0,0,0,0,0,0,0,0,0,0,0,0,0,0,0,0,0,0,0,0,0,0,0,0,0,0,0,0,0,0,0,0,0,0,0,0,0,0,0,0,0,0,0,0,0,0,-0.4797,-0.4797,0,-0.4768,-0.4767,-0.4767,-0.4777,-0.4778,-0.4778,-0.4779,-0.4744,-0.4742,-0.4741,0,0,0,0,0,0,0,0,0,0,0,0,0,-0.4861,-0.4859,-0.4797,-0.4797,-0.4797,-0.4768,-0.4767,-0.4767,-0.4777,-0.4778,-0.4778,-0.4779,-0.4744,-0.4743,-0.4741,0,0,0,0,0,0,0,0,0,0,0,0,0,-0.4832,-0.4859,-0.4797,-0.4798,-0.4798,-0.4768,-0.4767,-0.4767,-0.4777,-0.4778,-0.4779,-0.478,-0.4745,-0.4743,-0.474,-0.4706,0,0,-0.4733,-0.4732,0,0,0,0,0,0,0,0,-0.4834,-0.483,-0.4799,-0.4798,-0.4798,-0.4777,-0.4777,-0.4746,-0.4776,-0.4785,-0.4779,-0.478,-0.4754,-0.4751,-0.4743,-0.4704,-0.4703,-0.4733,-0.4732,-0.4731,-0.473,0,0,0,0,0,0,0,-0.4836,-0.4831,-0.4785,-0.4798,-0.4798,-0.4799,-0.4796,-0.4771,-0.4764,-0.4784,-0.4785,-0.4781,-0.4754,-0.4745,-0.4742,-0.4702,-0.4733,-0.4731,-0.473,-0.4729,-0.4636,-0.4635,0,0,0,0,0,0,-0.4838,-0.4833,-0.4786,-0.4785,-0.4819,-0.4797,-0.4794,-0.4783,-0.4764,-0.4762,-0.478,-0.4782,-0.4749,-0.4745,-0.4741,-0.47,-0.4731,-0.4729,-0.4727,-0.4637,-0.4635,-0.4634,0,0,0,0,0,0,-0.484,-0.4834,-0.4788,-0.4809,-0.4803,-0.4795,-0.4782,-0.4782,-0.4773,-0.4762,-0.476,-0.4773,-0.4749,-0.4744,-0.4715,-0.4699,-0.4727,-0.4725,-0.4638,-0.4636,-0.4635,-0.4618,0,0,0,0,0,0,-0.4841,-0.4834,-0.4822,-0.4809,-0.4802,-0.4763,-0.4781,-0.478,-0.4769,-0.4771,-0.4754,-0.4752,-0.475,-0.4719,-0.4713,-0.4696,-0.4724,-0.4639,-0.4637,-0.4635,-0.462,-0.4616,-0.4612,0,0,0,0,0,-0.4844,-0.4817,-0.4821,-0.4815,-0.4786,-0.4762,-0.4758,-0.4757,-0.4768,-0.4755,-0.4748,-0.4753,-0.4702,-0.4716,-0.4709,-0.4692,-0.464,-0.4638,-0.4635,-0.4621,-0.4616,-0.4612,0,0,0,0,0,0,-0.4826,-0.4815,-0.4819,-0.4788,-0.4776,-0.4764,-0.4747,-0.4752,-0.4735,-0.4737,-0.4735,-0.4731,-0.4702,-0.4694,-0.4709,-0.4658,-0.4673,-0.4669,-0.4664,-0.4659,-0.4656,-0.4658,-0.4722,0,0,0,0,0,-0.4819,-0.4802,-0.4793,-0.4766,-0.476,-0.4755,-0.4744,-0.4745,-0.4732,-0.4726,-0.4717,-0.4703,-0.4684,-0.4671,-0.4653,-0.4619,-0.4616,-0.4604,-0.46,-0.4597,-0.4594,-0.4576,-0.4571,-0.4626,-0.4626,-0.4626,0,0,-0.4803,-0.4795,-0.4784,-0.4762,-0.4753,-0.4734,-0.475,-0.4729,-0.4715,-0.4722,-0.4695,-0.4688,-0.4673,-0.4641,-0.4627,-0.4634,-0.4578,-0.4594,-0.4592,-0.459,-0.4573,-0.4567,-0.4563,-0.4625,-0.4625,-0.4625,0,0,-0.4765,-0.4758,-0.4735,-0.4726,-0.4713,-0.471,-0.4705,-0.4692,-0.4689,-0.4662,-0.4667,-0.465,-0.4617,-0.4606,-0.4596,-0.4557,-0.4561,-0.4551,-0.4531,-0.4514,-0.451,-0.4506,-0.4492,-0.4487,-0.4548,-0.4548,-0.4548,0,-0.4747,-0.472,-0.4722,-0.4702,-0.4692,-0.47,-0.4677,-0.4667,-0.4648,-0.4641,-0.465,-0.461,-0.46,-0.4567,-0.4558,-0.4549,-0.4543,-0.4552,-0.451,-0.4506,-0.4503,-0.4489,-0.4484,-0.4547,-0.4547,-0.4547,-0.4547,0,-0.4698,-0.468,-0.4663,-0.4647,-0.4635,-0.4613,-0.4611,-0.4599,-0.4601,-0.4597,-0.457,-0.4559,-0.4539,-0.4532,-0.4532,-0.4499,-0.4503,-0.4511,-0.4526,-0.4496,-0.4484,-0.4479,-0.4545,-0.4545,-0.4546,-0.4546,0,0,-0.4646,-0.4633,-0.4627,-0.462,-0.4608,-0.4593,-0.4571,-0.4554,-0.4544,-0.4531,-0.4513,-0.4486,-0.4494,-0.4483,-0.4483,-0.4468,-0.4438,-0.4478,-0.4477,-0.4471,-0.44,-0.4394,-0.4388,-0.4441,-0.444,-0.444,-0.4402,0,-0.4607,-0.4571,-0.4573,-0.4539,-0.4522,-0.4531,-0.4512,-0.4502,-0.4498,-0.4483,-0.4479,-0.446,-0.4472,-0.4465,-0.4451,-0.4445,-0.4424,-0.4448,-0.4423,-0.4423,-0.4426,-0.4381,-0.4374,-0.4339,-0.4397,-0.4396,-0.4395,0,-0.4556,-0.4543,-0.4508,-0.45,-0.4492,-0.4476,-0.4461,-0.4446,-0.4435,-0.4434,-0.4423,-0.4426,-0.4404,-0.4421,-0.439,-0.4407,-0.4397,-0.4393,-0.4392,-0.4388,-0.4406,-0.4376,-0.4327,-0.4322,-0.4387,-0.4388,-0.4389,0,-0.4521,-0.4496,-0.4472,-0.4466,-0.4455,-0.4443,-0.4438,-0.4428,-0.4418,-0.4405,-0.4398,-0.4382,-0.4373,-0.436,-0.4359,-0.4371,-0.4329,-0.4345,-0.4326,-0.4326,-0.4315,-0.4316,-0.4264,-0.4311,-0.4311,-0.4311,-0.4311,0,-0.4476,-0.4454,-0.4456,-0.4441,-0.4417,-0.442,-0.4395,-0.4391,-0.4383,-0.4367,-0.4373,-0.4358,-0.4358,-0.4342,-0.4341,-0.4316,-0.4312,-0.4309,-0.4309,-0.4308,-0.4309,-0.4301,-0.4303,-0.4309,-0.431,-0.431,-0.431,0,-0.4433,-0.4433,-0.4408,-0.4401,-0.4399,-0.4381,-0.4375,-0.436,-0.4359,-0.4338,-0.4334,-0.433,-0.4312,-0.431,-0.4288,-0.4288,-0.4258,-0.4261,-0.4262,-0.4262,-0.4244,-0.4245,-0.4184,-0.4176,-0.4229,-0.4229,-0.4228,0,-0.4404,-0.4387,-0.438,-0.437,-0.4365,-0.435,-0.434,-0.4343,-0.4333,-0.432,-0.4307,-0.429,-0.4277,-0.4248,-0.4243,-0.4226,-0.4228,-0.4208,-0.4226,-0.4226,-0.4228,-0.4228,-0.4227,-0.4204,-0.4204,-0.4203,-0.4203,0,-0.4352,-0.4354,-0.4341,-0.4328,-0.4317,-0.4307,-0.4297,-0.4289,-0.4291,-0.4279,-0.4262,-0.4251,-0.4231,-0.4214,-0.4199,-0.4192,-0.4197,-0.4198,-0.4193,-0.4191,-0.4192,-0.4191,-0.4252,-0.4199,-0.4199,-0.4199,-0.42,-0.42,-0.4315,-0.4301,-0.4294,-0.428,-0.4273,-0.4265,-0.4252,-0.4249,-0.4235,-0.422,-0.4222,-0.4203,-0.4194,-0.4174,-0.4167,-0.4152,-0.4158,-0.4151,-0.4149,-0.4147,-0.4145,-0.4196,-0.4149,-0.4149,-0.4149,-0.4149,-0.4149,0,-0.4264,-0.426,-0.4247,-0.4235,-0.4223,-0.4232,-0.4222,-0.4212,-0.4195,-0.4187,-0.4175,-0.4155,-0.4139,-0.4134,-0.4119,-0.4108,-0.411,-0.4103,-0.4104,-0.4102,-0.414,-0.4146,-0.4102,-0.4102,-0.4102,-0.4102,-0.4102,-0.4102,-0.4235,-0.4213,-0.4214,-0.4189,-0.4186,-0.4168,-0.4162,-0.4154,-0.4148,-0.4127,-0.4114,-0.4112,-0.4105,-0.4089,-0.4075,-0.4074,-0.4068,-0.406,-0.406,-0.4095,-0.4099,-0.4104,-0.411,-0.4059,-0.4059,-0.4024,-0.4024,-0.4023]}]]